Location: Ferchesar
(52.6477°N, 12.4298°E)
Time: 06:25:13
(UTC+02:00)

Transit 4A - Pass Details

Date: 03 March 2021
Orbit: 869 x 976 km, 66.8° (Epoch: 12 April)

Event Time Altitude Azimuth Distance (km) Brightness Sun altitude
Rises 17:35:15 0° 318° (NW) 3,611 11.4 1.8°
Reaches altitude 10° 17:37:56 10° 324° (NW) 2,647 10.6 1.4°
Maximum altitude 17:43:52 47° 38° (NE) 1,196 8.3 0.5°
Drops below altitude 10° 17:49:35 10° 112° (ESE) 2,565 9.7 -0.3°
Sets 17:52:09 0° 118° (ESE) 3,488 10.4 -0.7°
